Location: Unspecified
(0.0000°N, 0.0000°E)
Time: 05:59:41
(UTC+00:00)

METEOR M2 - Pass Details

Date: 11 July 2020
Orbit: 818 x 828 km, 98.5° (Epoch: 13 August)

Event Time Altitude Azimuth Distance (km) Brightness Sun altitude
Exits shadow 20:10:59 65° 225° (SW) 905 ? -28.8°
Maximum altitude 20:11:26 69° 257° (WSW) 884 ? -28.9°
Drops below altitude 10° 20:16:46 10° 340° (NNW) 2,421 ? -30.1°
Sets 20:19:08 0° 343° (NNW) 3,351 ? -30.7°
